FW9268 Weather Reports


Display with metric or nautical units.
time (UTC)temp
F
wind
direction
speed
MPH
gust
MPH
rain 1hr
in
rain 24hr
in
rain mn
in
humidity
%
barometer
mb
20260510150045 48 333 8.0 22.0 0.00 0.00 0.00 49 1019.6
20260510150041 48 312 9.0 22.0 0.00 0.00 0.00 49 1025.6
20260510144546 47 267 5.0 18.0 0.00 0.00 0.00 51 1019.5
20260510144543 47 313 6.0 18.0 0.00 0.00 0.00 51 1025.6
20260510143049 47 313 6.0 17.0 0.00 0.00 0.00 53 1019.3
20260510143044 47 340 7.0 17.0 0.00 0.00 0.00 53 1025.5
20260510141543 47 331 7.0 13.0 0.00 0.00 0.00 55 1025.5
20260510141539 47 286 7.0 12.0 0.00 0.00 0.00 55 1019.3
20260510140042 46 360 8.0 18.0 0.00 0.00 0.00 56 1025.4
20260510140032 46 360 8.0 18.0 0.00 0.00 0.00 57 1019.3
20260510134541 45 319 4.0 23.0 0.00 0.00 0.00 59 1025.4
20260510134530 45 332 3.0 14.0 0.00 0.00 0.00 60 1019.3
20260510133039 45 336 3.0 22.0 0.00 0.00 0.00 60 1025.2
20260510133033 45 335 5.0 22.0 0.00 0.00 0.00 60 1019.2
20260510131536 43 309 5.0 15.0 0.00 0.00 0.00 61 1025.2
20260510131526 43 309 5.0 15.0 0.00 0.00 0.00 61 1019.3
20260510130039 42 289 2.0 15.0 0.00 0.00 0.00 65 1025.3
20260510130019 42 289 1.0 15.0 0.00 0.00 0.00 65 1019.2
20260510124537 41 313 3.0 10.0 0.00 0.02 0.00 65 1025.2
20260510124517 41 313 3.0 10.0 0.00 0.02 0.00 66 1019.1
20260510123042 40 318 3.0 9.0 0.00 0.02 0.00 66 1025.2
20260510123010 40 297 3.0 9.0 0.00 0.02 0.00 66 1019.0
20260510121539 38 335 1.0 6.0 0.00 0.02 0.00 69 1025.1
20260510121506 38 335 1.0 6.0 0.00 0.02 0.00 70 1019.0
20260510120039 37 333 0.0 2.0 0.00 0.02 0.00 71 1025.0
20260510120002 36 333 0.0 2.0 0.00 0.02 0.00 72 1018.9
20260510114559 36 333 0.0 2.0 0.00 0.12 0.00 74 1018.9
20260510114543 36 333 0.0 2.0 0.00 0.12 0.00 74 1024.9
20260510113108 35 345 0.0 2.0 0.00 0.12 0.00 80 1018.6
20260510113036 35 0 0.0 2.0 0.00 0.12 0.00 79 1024.8
20260510111557 34 345 0.0 0.0 0.00 0.12 0.00 81 1018.3
20260510111536 34 0 0.0 0.0 0.00 0.12 0.00 80 1024.4
20260510110050 32 345 0.0 2.0 0.00 0.12 0.00 90 1018.1
20260510110037 32 0 0.0 2.0 0.00 0.12 0.00 89 1024.3
20260510104556 31 346 0.0 0.0 0.00 0.12 0.00 89 1018.0
20260510104545 31 0 0.0 0.0 0.00 0.12 0.00 89 1024.2
20260510103049 31 346 0.0 0.0 0.00 0.12 0.00 89 1017.7
20260510103039 31 0 0.0 0.0 0.00 0.12 0.00 89 1023.8
20260510101544 30 346 0.0 0.0 0.00 0.12 0.00 90 1017.5
20260510101541 30 0 0.0 0.0 0.00 0.12 0.00 89 1023.7
20260510100059 30 0 0.0 0.0 0.00 0.12 0.00 89 1023.5
20260510100042 30 346 0.0 0.0 0.00 0.12 0.00 89 1017.2
20260510094550 29 0 0.0 0.0 0.00 0.12 0.00 89 1023.4
20260510094542 29 346 0.0 0.0 0.00 0.12 0.00 90 1017.2
20260510093052 29 346 0.0 0.0 0.00 0.12 0.00 90 1017.1
20260510093039 29 0 0.0 0.0 0.00 0.12 0.00 90 1023.4
20260510091539 29 0 0.0 0.0 0.00 0.12 0.00 90 1023.1
20260510090047 29 0 0.0 0.0 0.00 0.12 0.00 89 1022.9
20260510090037 29 346 0.0 0.0 0.00 0.12 0.00 90 1016.7
20260510084554 29 0 0.0 0.0 0.00 0.12 0.00 89 1022.8
20260510084536 29 346 0.0 0.0 0.00 0.12 0.00 89 1016.6
20260510083045 29 0 0.0 0.0 0.00 0.12 0.00 89 1022.8
20260510083038 29 346 0.0 0.0 0.00 0.12 0.00 90 1016.3
20260510081549 29 0 0.0 1.0 0.00 0.12 0.00 88 1022.7
20260510081541 29 346 0.0 1.0 0.00 0.12 0.00 88 1016.2
20260510080042 29 0 0.0 0.0 0.00 0.12 0.00 87 1022.7
20260510080031 29 346 0.0 0.0 0.00 0.12 0.00 87 1016.3
20260510074540 30 0 0.0 0.0 0.00 0.12 0.00 89 1022.7
20260510074529 30 346 0.0 0.0 0.00 0.12 0.00 89 1016.2
20260510073038 30 0 0.0 0.0 0.00 0.12 0.00 88 1022.5
20260510073029 30 346 0.0 0.0 0.00 0.12 0.00 88 1016.0
20260510071543 30 0 0.0 0.0 0.00 0.12 0.00 87 1022.3
20260510071526 30 346 0.0 0.0 0.00 0.12 0.00 88 1016.0
20260510070040 30 0 0.0 0.0 0.00 0.12 0.00 88 1022.3
20260510070026 30 346 0.0 0.0 0.00 0.12 0.00 88 1016.0
20260510064543 31 0 0.0 0.0 0.00 0.12 0.00 86 1022.2
20260510064533 31 346 0.0 0.0 0.00 0.12 0.00 87 1015.8
20260510063039 32 0 0.0 0.0 0.00 0.12 0.00 82 1022.3
20260510063032 32 346 0.0 0.0 0.00 0.12 0.00 82 1015.7
20260510061539 32 0 0.0 0.0 0.00 0.12 0.00 82 1022.2
20260510061521 32 346 0.0 0.0 0.00 0.12 0.00 83 1015.6
20260510060039 33 0 0.0 0.0 0.00 0.12 0.00 80 1022.1
20260510060032 33 346 0.0 0.0 0.00 0.12 0.00 80 1015.6
20260510054537 33 0 0.0 0.0 0.00 0.12 0.00 78 1022.0
20260510054516 33 346 0.0 0.0 0.00 0.12 0.00 78 1015.4
20260510053038 34 0 0.0 0.0 0.00 0.12 0.00 74 1021.8
20260510053010 34 346 0.0 0.0 0.00 0.12 0.00 74 1015.1
20260510051540 34 0 0.0 0.0 0.00 0.12 0.00 73 1021.7
20260510051518 35 346 0.0 0.0 0.00 0.12 0.00 74 1015.1
20260510050042 35 0 0.0 0.0 0.00 0.12 0.00 69 1021.7
20260510050006 35 346 0.0 0.0 0.00 0.12 0.00 69 1015.1
20260510044540 36 0 0.0 0.0 0.00 0.12 0.12 71 1021.6
20260510044501 36 346 0.0 0.0 0.00 0.12 0.12 72 1015.0
20260510043101 37 346 0.0 0.0 0.00 0.12 0.12 70 1014.8
20260510043042 37 0 0.0 0.0 0.00 0.12 0.12 70 1021.5
20260510041603 38 346 0.0 0.0 0.00 0.12 0.12 65 1014.7
20260510041537 38 0 0.0 0.0 0.00 0.12 0.12 65 1021.4
20260510040055 39 346 0.0 0.0 0.00 0.12 0.12 59 1014.4
20260510040038 39 0 0.0 0.0 0.00 0.12 0.12 58 1021.2
20260510034557 40 346 0.0 0.0 0.00 0.12 0.12 60 1014.3
20260510034543 40 0 0.0 0.0 0.00 0.12 0.12 59 1021.1
20260510033107 39 346 0.0 1.0 0.00 0.12 0.12 62 1014.2
20260510033051 39 0 0.0 1.0 0.00 0.12 0.12 64 1020.9
20260510031551 39 346 0.0 1.0 0.00 0.12 0.12 66 1014.1
20260510031539 39 0 0.0 1.0 0.00 0.12 0.12 65 1020.8
20260510030106 40 346 0.0 0.0 0.00 0.12 0.12 62 1013.9
20260510030042 40 0 0.0 0.0 0.00 0.12 0.12 61 1020.7
20260510024545 40 346 0.0 0.0 0.00 0.12 0.12 60 1013.6
20260510024540 40 0 0.0 0.0 0.00 0.12 0.12 59 1020.4
20260510023044 42 346 0.0 0.0 0.00 0.12 0.12 54 1013.2
20260510023037 42 0 0.0 1.0 0.00 0.12 0.12 53 1020.0
20260510021542 42 346 0.0 1.0 0.00 0.12 0.12 60 1012.9
20260510021539 42 0 0.0 1.0 0.00 0.12 0.12 59 1019.9
20260510020044 43 0 0.0 2.0 0.00 0.12 0.12 53 1019.6
20260510020040 43 346 0.0 2.0 0.00 0.12 0.12 53 1012.6
20260510014545 44 0 0.0 1.0 0.00 0.12 0.12 50 1019.3
20260510014540 44 346 0.0 1.0 0.00 0.12 0.12 52 1012.3
20260510013038 46 0 0.0 2.0 0.00 0.12 0.12 48 1018.9
20260510011542 47 0 0.0 4.0 0.00 0.12 0.12 44 1018.6
20260510011534 47 346 0.0 4.0 0.00 0.12 0.12 44 1011.7
20260510010038 48 346 1.0 6.0 0.00 0.12 0.12 40 1018.4
20260510010032 48 346 1.0 6.0 0.00 0.12 0.12 41 1011.4
20260510004538 49 327 2.0 8.0 0.00 0.12 0.12 39 1018.2
20260510004531 49 328 3.0 8.0 0.00 0.12 0.12 39 1011.0
20260510003042 50 346 2.0 14.0 0.00 0.12 0.12 37 1018.1
20260510003029 50 346 2.0 11.0 0.00 0.12 0.12 37 1010.8
20260510001542 51 337 4.0 10.0 0.00 0.12 0.12 37 1017.9
20260510001528 51 341 3.0 10.0 0.00 0.12 0.12 38 1010.7
20260510000059 50 337 4.0 11.0 0.00 0.12 0.12 36 1017.7
20260510000026 50 336 6.0 11.0 0.00 0.12 0.12 36 1010.5
20260509234550 51 346 4.0 15.0 0.00 0.12 0.12 35 1017.6
20260509234535 51 346 3.0 14.0 0.00 0.12 0.12 36 1010.4
20260509233036 52 321 4.0 18.0 0.00 0.12 0.12 37 1017.5
20260509233023 52 321 2.0 18.0 0.00 0.12 0.12 37 1010.2
20260509231545 53 324 6.0 19.0 0.00 0.12 0.12 35 1017.4
20260509231523 53 346 7.0 16.0 0.00 0.12 0.12 35 1010.0
20260509230043 52 32 7.0 20.0 0.00 0.12 0.12 34 1017.0
20260509230023 52 33 8.0 20.0 0.00 0.12 0.12 35 1009.8
20260509224541 54 5 8.0 20.0 0.00 0.12 0.12 35 1016.8
20260509224519 54 5 7.0 19.0 0.00 0.12 0.12 36 1009.6
20260509223042 54 329 11.0 21.0 0.00 0.12 0.12 34 1016.4
20260509223017 54 327 10.0 20.0 0.00 0.12 0.12 37 1009.2
20260509221543 54 316 7.0 18.0 0.00 0.12 0.12 35 1016.1
20260509221518 54 316 8.0 18.0 0.00 0.12 0.12 36 1008.9
20260509220039 55 313 9.0 18.0 0.00 0.12 0.12 33 1015.9
20260509220015 55 319 8.0 18.0 0.00 0.12 0.12 33 1008.7
20260509214537 52 295 5.0 16.0 0.00 0.12 0.12 36 1015.8
20260509214514 52 295 4.0 16.0 0.00 0.12 0.12 36 1008.6
20260509213043 55 289 7.0 21.0 0.00 0.12 0.12 35 1015.6
20260509213013 55 262 7.0 14.0 0.00 0.12 0.12 36 1008.4
20260509211540 53 254 9.0 21.0 0.00 0.12 0.12 33 1015.3
20260509211512 53 255 9.0 19.0 0.00 0.12 0.12 33 1008.1
20260509210045 56 310 12.0 19.0 0.00 0.12 0.12 33 1015.2
20260509210017 56 333 12.0 19.0 0.00 0.12 0.12 33 1008.0
20260509204546 54 294 7.0 25.0 0.00 0.12 0.12 34 1015.1
20260509204508 54 272 6.0 25.0 0.00 0.12 0.12 35 1007.8
20260509203036 56 331 10.0 20.0 0.00 0.12 0.12 34 1014.7
20260509203007 56 326 11.0 20.0 0.00 0.12 0.12 34 1007.5
20260509201539 57 325 7.0 23.0 0.00 0.12 0.12 35 1014.6
20260509201505 57 320 8.0 23.0 0.00 0.12 0.12 35 1007.4
20260509200055 56 341 6.0 19.0 0.00 0.12 0.12 33 1014.5
20260509200004 54 341 8.0 19.0 0.00 0.12 0.12 34 1007.3
20260509194600 54 275 12.0 20.0 0.00 0.12 0.12 33 1006.9
20260509194540 54 350 9.0 20.0 0.00 0.12 0.12 33 1014.3
20260509193115 56 309 10.0 21.0 0.00 0.12 0.12 30 1006.7
20260509193039 56 323 8.0 22.0 0.00 0.12 0.12 30 1014.1
20260509191557 55 305 12.0 20.0 0.00 0.12 0.12 33 1006.7
20260509191537 55 277 11.0 20.0 0.00 0.12 0.12 32 1013.9
20260509190059 55 338 10.0 21.0 0.00 0.12 0.12 34 1006.5
20260509190038 55 307 10.0 22.0 0.00 0.12 0.12 34 1013.8
20260509184606 54 328 8.0 20.0 0.00 0.12 0.12 34 1006.5
20260509184555 54 273 10.0 20.0 0.00 0.12 0.12 35 1013.6
20260509183052 54 256 4.0 21.0 0.00 0.12 0.12 37 1006.1
20260509183039 54 311 3.0 21.0 0.00 0.12 0.12 38 1013.5
20260509181553 54 303 9.0 20.0 0.00 0.12 0.12 38 1006.0
20260509181545 54 338 9.0 20.0 0.00 0.12 0.12 35 1013.4
20260509180048 54 336 9.0 16.0 0.00 0.12 0.12 38 1005.9
20260509180035 54 332 8.0 20.0 0.00 0.12 0.12 38 1013.3
20260509174547 53 258 6.0 17.0 0.00 0.12 0.12 38 1005.7
20260509174538 53 311 7.0 17.0 0.00 0.12 0.12 37 1013.1
20260509173052 54 329 9.0 21.0 0.00 0.12 0.12 39 1005.5
20260509173044 54 255 8.0 21.0 0.00 0.12 0.12 39 1013.0
20260509171553 54 289 9.0 20.0 0.00 0.12 0.12 39 1005.5
20260509171539 54 322 10.0 20.0 0.00 0.12 0.12 38 1012.8
20260509170041 52 283 6.0 15.0 0.00 0.12 0.12 44 1005.5
20260509170039 52 285 6.0 14.0 0.00 0.12 0.12 43 1012.5
20260509164538 51 344 10.0 16.0 0.00 0.12 0.12 44 1005.1
20260509163040 51 294 9.0 18.0 0.00 0.12 0.12 49 1012.5
20260509163037 51 333 9.0 18.0 0.00 0.12 0.12 49 1005.1
20260509161539 52 303 5.0 16.0 0.00 0.12 0.12 52 1012.2
20260509161537 52 316 8.0 16.0 0.00 0.12 0.12 52 1004.9
20260509160044 51 325 7.0 17.0 0.00 0.12 0.12 55 1012.4
20260509160035 51 315 7.0 17.0 0.00 0.12 0.12 55 1004.8
20260509154541 50 300 7.0 16.0 0.00 0.12 0.12 54 1012.0
20260509154535 50 302 7.0 16.0 0.00 0.12 0.12 55 1004.6
20260509153043 49 339 7.0 13.0 0.00 0.12 0.12 60 1011.9
20260509153031 49 330 7.0 13.0 0.00 0.12 0.12 60 1004.5
20260509151539 47 306 2.0 12.0 0.00 0.12 0.12 71 1011.7
20260509151527 47 306 2.0 12.0 0.00 0.12 0.12 72 1004.3